Weather History for KLVS - July, 2014

Change the Weather History Date:

Wednesday, July 23, 2014

  Actual Average Record
Temperature  
Mean Temperature 68 °F -  
Max Temperature 82 °F 82 °F 92 °F (1963)
Min Temperature 54 °F 54 °F 35 °F (2000)
Cooling Degree Days 2    
Growing Degree Days 18 (Base 50)    
Moisture  
Dew Point 50 °F    
Average Humidity 54    
Maximum Humidity 89    
Minimum Humidity 27    
Precipitation  
Precipitation 0.00 in - - ()
Sea Level Pressure  
Sea Level Pressure 30.20 in    
Wind  
Wind Speed 7 mph (SSE)    
Max Wind Speed 17 mph    
Max Gust Speed 23 mph    
Visibility 10 miles    
Events Thunderstorm    
Averages and records for this station are not official NWS values.
T = Trace of Precipitation, MM = Missing Value Source: NWS Daily Summary

Daily Weather History Graph

Daily Weather History Graph

Search for Another Location

Airport or City:

Trip Planner

Search our weather history database for the weather conditions in past years. The results will help you decide how hot, cold, wet, or windy it might be!

Date:

Astronomy

Jul. 23, 2014 Rise Set
Actual Time 6:01 AM MDT 8:11 PM MDT
Civil Twilight 5:33 AM MDT 8:40 PM MDT
Nautical Twilight 4:57 AM MDT 9:15 PM MDT
Astronomical Twilight 4:19 AM MDT 9:53 PM MDT
Moon 3:22 AM MDT (7/23) 5:43 PM MDT (7/23)
Length of Visible Light 15h 07m
Length of Day
14h 09m
Waning Crescent, 9% of the Moon is Illuminated
Jul 23
Waning Crescent
Jul 26
New
Aug 3
First Quarter
Aug 10
Full
Aug 17
Last Quarter

Hourly Weather History & Observations

Time (MDT) Temp. Dew Point Humidity Pressure Visibility Wind Dir Wind Speed Gust Speed Precip Events Conditions
12:53 AM 60.1 °F 54.0 °F 80% 30.12 in 10.0 mi NNE 5.8 mph - N/A   Clear
1:53 AM 57.0 °F 54.0 °F 89% 30.14 in 10.0 mi NE 5.8 mph - N/A   Clear
2:53 AM 55.0 °F 52.0 °F 89% 30.17 in 10.0 mi NE 3.5 mph - N/A   Clear
3:53 AM 59.0 °F 51.1 °F 75% 30.13 in 10.0 mi Calm Calm - N/A   Clear
4:53 AM 57.9 °F 50.0 °F 75% 30.15 in 10.0 mi Calm Calm - N/A   Clear
5:53 AM 54.0 °F 50.0 °F 86% 30.23 in 10.0 mi East 5.8 mph - N/A   Clear
6:53 AM 57.0 °F 52.0 °F 83% 30.20 in 10.0 mi East 5.8 mph - N/A   Clear
7:53 AM 61.0 °F 53.1 °F 75% 30.23 in 10.0 mi ENE 3.5 mph - N/A   Clear
8:53 AM 66.9 °F 55.9 °F 68% 30.23 in 10.0 mi NNE 4.6 mph - N/A   Scattered Clouds
9:53 AM 71.1 °F 55.9 °F 59% 30.21 in 10.0 mi Calm Calm - N/A   Clear
10:53 AM 75.0 °F 55.9 °F 51% 30.19 in 10.0 mi SSW 5.8 mph - N/A   Clear
11:53 AM 77.0 °F 55.9 °F 48% 30.18 in 10.0 mi Variable 3.5 mph - N/A   Partly Cloudy
12:53 PM 77.0 °F 54.0 °F 45% 30.18 in 10.0 mi Variable 4.6 mph - N/A   Mostly Cloudy
1:53 PM 78.1 °F 53.1 °F 42% 30.17 in 10.0 mi SE 10.4 mph - N/A   Mostly Cloudy
2:53 PM 78.1 °F 52.0 °F 40% 30.15 in 10.0 mi South 13.8 mph - N/A   Mostly Cloudy
3:17 PM 78.1 °F 51.1 °F 39% 30.46 in 10.0 mi South 11.5 mph - N/A Thunderstorm Partly Cloudy
3:29 PM 79.0 °F 50.0 °F 36% 30.45 in 10.0 mi South 16.1 mph 23.0 mph N/A Thunderstorm Thunderstorm
3:44 PM 79.0 °F 48.0 °F 34% 30.45 in 10.0 mi South 13.8 mph - N/A Thunderstorm Scattered Clouds
3:53 PM 80.1 °F 46.9 °F 31% 30.13 in 10.0 mi South 15.0 mph - N/A Thunderstorm Scattered Clouds
4:11 PM 80.1 °F 48.9 °F 34% 30.45 in 10.0 mi SW 10.4 mph - N/A   Mostly Cloudy
4:53 PM 79.0 °F 46.0 °F 31% 30.11 in 10.0 mi South 10.4 mph - N/A   Scattered Clouds
5:53 PM 81.0 °F 44.1 °F 27% 30.11 in 10.0 mi SSE 17.3 mph - N/A   Partly Cloudy
6:53 PM 75.9 °F 45.0 °F 33% 30.12 in 10.0 mi SE 11.5 mph - N/A   Clear
7:53 PM 75.0 °F 44.1 °F 33% 30.11 in 10.0 mi SSE 9.2 mph - N/A   Clear
8:53 PM 66.0 °F 45.0 °F 47% 30.13 in 10.0 mi SSE 9.2 mph - N/A   Clear
9:53 PM 66.0 °F 45.0 °F 47% 30.13 in 10.0 mi South 6.9 mph - N/A   Clear
10:53 PM 66.9 °F 46.0 °F 47% 30.12 in 10.0 mi South 6.9 mph - N/A   Clear
11:53 PM 63.0 °F 46.9 °F 56% 30.14 in 10.0 mi SSW 8.1 mph - N/A   Clear